User: anonymous   Login
Location: Central Coast NSW, Australia
(33.2407°S, 151.4316°E)
Time: 02:17:19
(UTC+10:00)
Language:

EO-88 - Orbit

View from above orbital plane
View from above orbital plane
View from above satellite
View from above satellite

Ground track
Ground track

The orbit data is extracted from the following two-line orbital elements,

1 42017U 17008BX  18263.72502224 +.00001257 +00000-0 +53687-4 0  9992
2 42017 097.4396 328.1838 0007619 054.1268 306.0676 15.24714574088628
Epoch (UTC): 20 September 2018 17:24:01
Eccentricity: 0.0007619
inclination: 97.4396°
perigee height: 486 km
apogee height: 497 km
right ascension of ascending node: 328.1838°
argument of perigee: 54.1268°
revolutions per day: 15.24714574
mean anomaly at epoch: 306.0676°
orbit number at epoch: 8862

The dashed part of the orbit path shows where the satellite is in the earth's shadow,  

DLR